Flag Weather past 2 weeks in Stanley, Falkland Islands

Now
43 °F

More clouds than sun.


Feels Like: 32 °F
Forecast: 43 / 48 °F
Wind: 35 mph from West

Location: Mount Pleasant Airport

Current Time: Nov 26, 2014 at 6:21:59 AM

Latest Report: Nov 26, 2014 at 5:50 AM


Visibility: N/A

Pressure: 29.18 "Hg

Humidity: 81%

Dew point: 37 °F

Location of StanleyLocation

Historic Weather in Stanley — Graph

°F

Stanley temperature yesterday

Maximum temperature yesterday: 54 °F (at 12:50 PM)
Minimum temperature yesterday: 45 °F (at 9:50 PM)
Average temperature yesterday: 48 °F

Past Weeks' High & Low Weather Summary

 TemperatureHumidityPressure
High68 °F (Nov 21, 1:50 PM)100% (Nov 23, 4:50 AM)29.77 "Hg (Nov 23, 4:50 AM)
Low34 °F (Nov 15, 4:50 AM)19% (Nov 11, 11:50 AM)28.94 "Hg (Nov 14, 6:50 AM)
Average48 °F65%29.41 "Hg
* Reported Nov 11 4:50 AM — Nov 26 4:50 AM, Stanley, Weather by CustomWeather, © 2014

Note: Actual official high and low records may vary slightly from our data, if they occured in-between our weather recording intervals... More about our weather records

Advertising

Stanley weather history for previous 24 hours

 ConditionsComfort  
Time TempWeatherWind HumidityBarometerVisibility
4:50 AM
Nov 26
45 °FMostly cloudy.26 mph81%29.15 "HgN/A
3:50 AM45 °FMostly cloudy.25 mph87%29.15 "HgN/A
2:50 AM45 °FMostly cloudy.31 mph87%29.12 "HgN/A
1:50 AM46 °FMostly cloudy.30 mph87%29.12 "HgN/A
12:50 AM45 °FRain. Passing clouds.31 mph93%29.15 "HgN/A
11:50 PM
Nov 25
45 °FRain. Passing clouds.24 mph93%29.18 "Hg5 mi
10:50 PM45 °FRain showers. Passing clouds.16 mph93%29.24 "HgN/A
9:50 PM45 °FRain showers. Passing clouds.18 mph87%29.27 "HgN/A
8:50 PM46 °FSprinkles. Broken clouds.14 mph71%29.27 "HgN/A
7:50 PM48 °FBroken clouds.20 mph62%29.27 "HgN/A
6:50 PM48 °FPartly sunny.28 mph54%29.30 "HgN/A
5:50 PM48 °FScattered showers. Partly sunny.24 mph62%29.30 "HgN/A
4:50 PM46 °FPartly sunny.30 mph76%29.27 "HgN/A
3:50 PM50 °FSprinkles. Partly sunny.29 mph54%29.27 "HgN/A
2:50 PM54 °FPartly sunny.32 mph47%29.27 "HgN/A
1:50 PM52 °FBroken clouds.26 mph44%29.24 "HgN/A
12:50 PM54 °FBroken clouds.30 mph41%29.24 "HgN/A
11:50 AM50 °FSprinkles. Scattered clouds.29 mph67%29.24 "HgN/A
10:50 AM50 °FScattered showers. Partly sunny.30 mph67%29.21 "HgN/A
9:50 AM48 °FScattered clouds.31 mph66%29.21 "HgN/A
8:50 AM48 °FPartly sunny.31 mph62%29.21 "HgN/A
7:50 AM48 °FPartly sunny.28 mph62%29.21 "HgN/A
6:50 AM46 °FPartly sunny.30 mph66%29.24 "HgN/A
Weather by CustomWeather, © 2014

See weather overviewHow to use our weather pages